Location: Hains Lake
(37.8540°N, 99.8578°W)
Time: 00:28:08
(UTC+00:00)

S-56A Canister/Altair - All Passes

Search period start: 19 April 2021 00:00
Search period end: 29 April 2021 00:00
Orbit: 632 x 2500 km, 38.9° (Epoch: 18 April)

Date Brightness Start Highest point End Pass type
(mag) Time Alt. Az. Time Alt. Az. Time Alt. Az.
19 Apr - 04:19:12 10° SSW 04:26:56 29° SSE 04:32:31 10° E visible
19 Apr - 06:23:27 10° WSW 06:31:05 69° SSE 06:36:19 10° E night (unlit)
19 Apr - 08:29:11 10° W 08:35:01 79° N 08:39:34 10° E visible
19 Apr - 10:34:00 10° W 10:38:37 58° SSW 10:43:00 10° ESE visible
19 Apr - 12:39:28 10° WSW 12:41:43 14° SW 12:44:06 10° S daylight
20 Apr - 03:46:07 10° SSW 03:54:05 27° SSE 03:59:56 10° E visible
20 Apr - 05:50:08 10° WSW 05:58:24 65° SSE 06:03:57 10° E visible
20 Apr - 07:56:05 10° W 08:02:27 80° N 08:07:09 10° E visible
20 Apr - 10:01:14 10° W 10:06:09 66° SSW 10:10:31 10° ESE visible
20 Apr - 12:06:28 10° WSW 12:09:12 16° SW 12:12:04 10° S daylight
21 Apr - 03:13:03 10° SSW 03:21:12 25° SSE 03:27:17 10° E visible
21 Apr - 05:16:45 10° SW 05:25:40 60° SSE 05:31:35 10° E visible
21 Apr - 07:22:51 10° W 07:29:50 82° N 07:34:46 10° E night (unlit)
21 Apr - 09:28:22 10° W 09:33:40 74° SSW 09:38:04 10° ESE visible
21 Apr - 11:33:31 10° W 11:36:44 19° SW 11:39:58 10° SSE daylight
22 Apr - 02:40:02 10° SSW 02:48:15 23° SE 02:54:33 10° E visible
22 Apr - 04:43:21 10° SW 04:52:53 57° SSE 04:59:10 10° E visible
22 Apr - 06:49:32 10° W 06:57:10 84° N 07:02:23 10° E night (unlit)
22 Apr - 08:55:24 10° W 09:01:09 82° SSW 09:05:39 10° ESE visible
22 Apr - 11:00:36 10° W 11:04:17 23° SSW 11:07:49 10° SSE visible
23 Apr - 02:07:05 10° S 02:15:16 22° SE 02:21:41 10° E visible
23 Apr - 04:09:54 10° SW 04:20:02 53° SSE 04:26:43 10° E visible
23 Apr - 06:16:07 10° W 06:24:28 87° N 06:30:02 10° E visible
23 Apr - 08:22:21 10° W 08:28:36 88° SSW 08:33:15 10° ESE visible
23 Apr - 10:27:40 10° W 10:31:50 28° SSW 10:35:37 10° SSE visible
24 Apr - 01:34:14 10° S 01:42:15 20° SE 01:48:42 10° E visible
24 Apr - 03:36:26 10° SW 03:47:07 50° SSE 03:54:15 10° E visible
24 Apr - 05:42:36 10° WSW 05:51:43 89° S 05:57:39 10° E visible
24 Apr - 07:49:10 10° W 07:56:00 88° NNE 08:00:52 10° E night (unlit)
24 Apr - 09:54:42 10° W 09:59:23 34° SSW 10:03:25 10° SE visible
25 Apr - 01:01:32 10° S 01:09:11 18° SE 01:15:32 10° ESE daylight
25 Apr - 03:02:59 10° SW 03:14:08 47° SSE 03:21:44 10° E visible
25 Apr - 05:09:02 10° WSW 05:18:55 86° SSE 05:25:16 10° E visible
25 Apr - 07:15:53 10° W 07:23:22 85° N 07:28:30 10° E visible
25 Apr - 09:21:40 10° W 09:26:56 41° SSW 09:31:12 10° SE visible
26 Apr - 00:29:02 10° S 00:36:04 16° SE 00:42:08 10° ESE daylight
26 Apr - 02:29:33 10° SW 02:41:06 44° SSE 02:49:08 10° E visible
26 Apr - 04:35:24 10° WSW 04:46:02 82° SSE 04:52:52 10° ENE visible
26 Apr - 06:42:28 10° W 06:50:40 83° N 06:56:08 10° E visible
26 Apr - 08:48:34 10° W 08:54:28 49° SSW 08:58:57 10° SE visible
26 Apr - 23:56:49 10° SSE 00:02:57 14° SE 00:08:25 10° ESE daylight
27 Apr - 01:56:09 10° SSW 02:08:01 41° SSE 02:16:29 10° E visible
27 Apr - 04:01:43 10° WSW 04:13:06 78° SSE 04:20:26 10° ENE visible
27 Apr - 06:08:59 10° W 06:17:55 83° N 06:23:45 10° E visible
27 Apr - 08:15:24 10° WNW 08:21:56 58° SSW 08:26:42 10° SE night (unlit)
27 Apr - 10:22:48 10° WSW 10:24:36 12° SW 10:26:17 10° SSW visible
27 Apr - 23:25:08 10° SSE 23:29:48 12° SE 23:34:09 10° ESE daylight
28 Apr - 01:22:49 10° SSW 01:34:52 38° SSE 01:43:44 10° E daylight
28 Apr - 03:28:01 10° WSW 03:40:06 75° SSE 03:47:58 10° ENE visible
28 Apr - 05:35:22 10° W 05:45:06 83° N 05:51:22 10° E visible
28 Apr - 07:42:07 10° WNW 07:49:23 66° SSW 07:54:25 10° ESE visible
28 Apr - 09:48:58 10° W 09:52:10 16° SW 09:55:00 10° S night (unlit)
28 Apr - 22:55:01 10° SE 22:56:39 10° SE 22:58:15 10° SE daylight
